Location: Newark
(49.3000°N, 9.4667°E)
Time: 04:42:26
(UTC+00:00)

Tiros 1 - Pass Details

Date: 29 May 2019
Orbit: 631 x 664 km, 48.4° (Epoch: 25 June)

Event Time Altitude Azimuth Distance (km) Brightness Sun altitude
Rises 09:23:52 0° 251° (WSW) 2,917 10.3 54.1°
Reaches altitude 10° 09:26:11 10° 249° (WSW) 2,014 9.6 54.4°
Maximum altitude 09:30:47 69° 167° (SSE) 683 9.0 54.9°
Drops below altitude 10° 09:35:26 10° 84° (E) 2,035 10.2 55.5°
Sets 09:37:47 0° 82° (E) 2,951 10.8 55.8°
